Wind_Speed
11 11 9 8 8 8 9 11 12 13 13 14 14 14 14 14 15 16 17 19 20 22 22 23 23 24 24 24 24 24 24 24 25 26 27 27 28 30 31 33 34 37 39 40 41 41 42 43 44 44 45 45 46 48 49 51 52 52 53 52 51 50 51 51 51 50 51 53 51 47 47 49 50 44 37 37 39 37 37 37 37 37 38 38 38 39 39 37
12 11 11 9 8 9 10 11 12 13 14 14 14 14 14 15 15 17 18 20 21 23 24 25 25 25 25 25 25 25 25 25 26 27 28 28 29 30 31 32 33 35 37 39 41 41 42 43 44 44 45 45 46 47 49 51 52 53 54 53 53 53 55 55 53 51 51 52 51 50 49 51 50 45 40 39 40 40 39 39 39 40 41 41 41 41 40 39
12 12 11 10 9 9 10 12 13 14 15 15 15 15 15 15 16 17 18 20 21 23 25 26 27 27 27 27 27 26 25 26 27 26 27 27 28 30 31 32 33 34 35 37 39 40 41 42 44 45 45 45 46 47 48 50 51 54 54 54 55 56 58 58 55 54 53 52 52 51 50 52 50 46 45 42 41 44 44 44 43 43 44 43 43 40 39 39
12 12 11 11 10 10 11 12 13 14 15 15 15 15 15 16 16 17 18 19 21 23 26 27 28 28 27 27 28 27 26 26 26 25 25 26 27 28 29 31 32 34 35 36 37 38 40 41 43 45 45 46 46 47 49 50 50 53 54 55 58 58 59 59 56 56 54 54 54 52 51 52 49 47 48 47 46 48 50 50 47 46 47 46 44 40 39 40
12 11 11 11 11 11 11 12 14 15 15 16 16 16 16 17 17 17 18 19 21 23 25 27 28 28 28 27 27 27 27 26 26 25 25 25 25 26 27 29 31 32 34 35 36 37 38 39 40 43 45 47 47 47 50 50 50 52 54 56 60 59 59 59 56 55 56 56 55 54 54 52 49 49 51 52 53 52 53 54 51 49 49 49 46 43 42 42
12 11 11 11 11 11 12 13 14 15 15 16 16 17 17 18 18 18 19 20 21 23 25 27 28 29 28 27 27 27 26 26 25 25 24 24 25 25 26 28 29 30 32 34 35 35 37 37 38 40 43 46 47 48 50 49 49 52 54 58 62 60 58 60 57 55 57 58 58 58 57 54 52 52 52 54 56 56 56 57 57 54 51 51 50 47 46 46
12 12 12 12 12 12 12 13 14 15 15 16 17 17 18 18 18 19 19 20 22 23 25 27 28 28 28 27 26 25 25 25 24 24 24 25 26 26 26 27 27 28 29 31 32 34 35 36 37 38 40 43 45 48 49 48 50 53 56 59 62 59 57 59 58 56 59 60 61 61 60 58 56 54 53 54 56 58 58 59 61 59 55 54 53 51 49 48
13 12 12 12 12 13 13 13 14 14 15 16 16 17 18 18 19 19 19 20 22 23 25 27 28 28 28 26 24 23 22 23 23 23 24 24 25 25 26 26 27 27 28 29 29 31 33 34 36 36 38 40 42 46 47 48 52 54 56 59 60 58 57 59 60 60 62 63 64 63 63 62 59 57 54 54 56 58 60 61 62 61 58 56 55 55 53 51
13 13 13 13 13 13 13 13 14 14 15 15 16 17 18 18 19 19 19 20 21 23 25 27 29 29 28 25 22 21 21 22 22 22 22 23 23 23 24 25 26 27 27 28 28 28 29 31 33 34 36 38 39 43 45 49 51 52 54 57 58 59 59 60 62 64 64 66 66 65 66 64 62 60 56 56 58 59 60 61 61 60 59 58 58 57 55 54
13 13 13 13 13 13 13 13 13 14 15 15 16 17 18 18 18 18 18 20 21 23 25 27 28 28 27 25 23 21 21 21 20 20 21 21 22 23 24 24 25 27 27 28 27 26 26 27 29 31 34 35 37 40 43 47 50 51 53 55 57 59 61 63 65 66 66 68 68 67 67 66 64 62 59 60 60 59 59 60 62 61 60 60 60 59 57 57
14 14 13 13 13 13 13 13 13 14 14 15 16 16 17 17 17 17 18 19 20 22 25 27 28 27 25 24 22 20 20 20 20 19 19 20 21 22 23 24 26 27 28 29 28 25 23 22 24 26 29 33 36 38 41 45 48 50 52 54 56 59 61 65 68 68 67 69 70 69 67 67 67 65 63 63 61 59 59 61 63 63 62 61 61 60 60 59
14 14 14 14 13 13 13 13 14 14 15 15 15 16 16 16 17 17 18 19 20 22 24 26 26 24 22 22 20 19 19 19 19 19 19 19 20 22 23 26 28 28 30 30 29 27 23 19 19 21 24 28 32 35 39 42 46 49 50 53 55 57 62 66 68 68 68 70 71 69 69 69 69 68 67 65 63 62 61 62 63 64 64 63 62 61 62 62
14 14 14 13 13 13 13 13 14 14 15 15 15 15 16 16 16 17 17 19 21 23 24 25 24 22 21 20 19 19 19 19 19 19 20 19 21 22 24 27 28 29 30 30 30 29 28 26 20 16 16 20 25 30 35 38 41 45 48 51 53 55 59 64 67 68 69 71 70 70 70 70 70 70 70 68 65 64 64 64 64 65 65 64 63 62 64 65
13 13 13 13 12 12 12 13 13 13 14 14 15 15 15 15 16 16 17 19 21 23 24 23 22 21 21 19 18 18 18 18 19 20 20 20 21 22 25 28 29 30 32 32 35 35 35 33 28 22 17 14 15 20 26 30 33 37 42 46 48 50 55 61 65 67 69 70 70 71 69 69 71 71 73 73 69 66 65 65 66 66 66 65 65 64 65 65
13 12 12 12 12 12 12 12 12 13 13 14 14 14 14 15 15 16 18 20 22 23 23 21 21 21 21 20 18 17 18 19 18 18 19 20 21 23 26 28 29 32 34 35 37 37 36 36 33 31 27 21 14 12 14 18 22 27 33 38 40 43 48 54 59 64 66 67 69 71 70 69 71 73 75 75 72 68 65 65 66 67 67 67 68 66 64 64
15 13 11 11 11 11 11 12 12 13 14 14 14 14 14 15 15 17 19 21 22 22 21 21 22 21 20 19 18 18 18 16 15 17 19 19 20 23 26 28 31 33 34 35 35 35 35 36 35 35 34 30 25 18 12 10 12 16 22 28 32 35 38 42 49 58 62 63 65 68 69 68 69 72 74 74 72 67 63 63 66 68 69 69 69 67 64 64
17 15 12 11 11 11 12 12 13 13 14 14 14 14 15 15 17 19 20 21 21 20 21 22 22 21 20 18 17 17 16 15 17 19 19 19 22 25 27 28 30 32 34 35 36 37 37 35 34 34 33 33 34 30 23 17 12 10 12 17 22 26 30 33 39 48 55 57 58 59 63 63 65 70 72 73 71 67 63 63 66 69 70 70 70 68 66 64
20 17 15 12 11 11 11 12 12 12 13 13 13 14 15 16 18 18 19 20 20 21 23 22 21 19 18 17 17 16 16 18 20 19 19 22 25 27 27 28 30 32 34 36 37 37 38 36 34 33 32 31 33 33 31 29 24 16 10 10 14 18 23 25 29 36 43 48 50 52 55 58 59 63 66 68 69 68 68 68 68 69 70 70 70 69 68 66
23 21 18 15 13 12 12 12 12 12 12 13 13 14 16 17 18 19 20 21 22 22 22 20 19 18 17 17 17 17 19 21 20 20 22 25 26 27 28 27 30 32 33 35 37 38 39 37 35 36 37 37 37 36 36 36 36 31 23 14 10 12 16 18 21 26 32 36 41 44 47 50 52 53 57 63 69 72 74 74 71 69 68 69 69 69 68 67
25 23 21 19 17 16 15 14 14 13 13 13 13 15 16 17 17 18 20 21 21 21 21 21 21 20 20 20 20 20 22 22 22 23 24 25 26 28 28 28 30 32 33 36 38 39 39 37 40 44 45 45 44 42 40 38 37 37 35 30 20 12 11 13 14 18 22 26 30 33 37 39 42 46 53 61 67 71 73 74 73 70 67 66 67 68 68 68
26 25 24 22 21 19 19 18 18 17 16 16 16 16 17 17 17 18 20 20 20 21 22 22 21 21 22 22 22 22 22 22 22 23 24 26 27 27 28 29 31 33 36 38 39 39 38 40 46 48 48 48 47 45 43 40 37 36 36 37 34 26 18 11 9 10 13 18 20 22 24 27 33 41 50 58 62 65 67 69 69 68 66 65 65 66 67 67
26 26 26 24 23 22 22 22 21 20 20 19 18 17 17 18 18 19 20 20 21 22 22 21 22 22 22 22 23 22 22 22 23 24 25 26 27 28 29 31 33 35 37 38 38 38 39 44 48 48 48 48 47 46 44 42 40 38 37 38 38 36 32 23 15 11 9 10 11 11 12 17 25 35 43 48 50 52 56 59 61 62 63 64 64 65 66 67
26 26 26 26 25 24 24 24 23 22 22 20 19 18 19 19 20 21 22 22 22 23 22 23 23 24 24 24 23 23 23 24 24 25 26 26 27 30 31 32 33 35 36 36 38 39 42 45 47 47 48 47 46 46 45 44 43 42 42 40 38 37 36 35 30 21 14 11 11 10 5 9 18 26 33 38 41 42 44 48 52 55 57 58 60 62 63 65
26 26 26 26 26 26 25 25 24 24 23 22 22 21 21 21 22 23 23 24 24 24 25 25 25 26 26 26 26 25 25 25 25 27 27 27 28 30 31 32 33 35 36 37 38 40 43 44 45 45 44 44 46 46 45 45 44 45 45 43 41 38 35 36 35 29 26 23 18 12 6 9 15 19 24 29 32 31 31 34 39 44 48 51 54 57 59 61
26 26 26 25 26 26 25 25 25 25 25 25 24 24 23 23 24 24 25 25 26 26 26 26 26 26 26 26 26 26 26 26 26 27 27 28 28 29 30 31 32 33 35 36 36 38 40 40 41 40 41 42 43 44 46 46 45 45 45 44 43 40 37 37 34 31 31 30 24 16 10 14 17 17 19 21 23 24 24 26 31 36 41 45 48 51 54 57
25 25 25 25 24 24 24 24 24 24 24 25 25 24 24 24 24 24 24 25 25 25 25 25 25 25 25 25 25 25 25 25 26 26 26 27 28 28 28 29 31 32 33 33 34 36 37 37 37 37 38 40 41 42 44 44 45 45 44 43 43 41 40 40 36 34 34 32 30 26 20 19 18 16 18 20 22 25 27 27 29 31 33 37 40 44 48 51
23 23 24 24 23 23 23 23 22 22 22 23 23 23 23 22 22 22 22 22 23 23 23 23 24 24 23 24 24 24 24 24 25 26 26 27 28 28 28 28 29 31 32 32 33 35 35 35 35 35 36 37 38 40 41 41 43 43 42 41 40 40 40 40 38 38 38 35 33 31 28 24 20 18 19 21 22 24 26 27 27 28 28 30 32 36 39 43
20 21 21 22 22 22 22 21 21 21 21 20 20 20 20 20 20 20 20 20 22 21 21 21 21 21 21 21 22 22 23 24 24 25 27 27 27 27 28 29 30 30 31 31 33 34 34 33 34 34 34 35 37 38 38 39 40 40 40 39 37 38 38 38 39 39 40 39 36 33 31 27 23 22 22 21 22 22 23 24 25 25 26 26 28 30 33 35
18 19 19 20 20 20 20 20 20 20 20 19 19 19 19 18 19 19 18 19 20 20 20 20 20 20 19 20 21 21 22 23 23 25 26 26 28 28 28 29 30 29 30 31 32 33 33 34 34 34 34 35 36 36 36 36 37 37 36 35 35 36 36 36 37 38 39 40 38 36 34 30 27 27 27 27 26 24 24 24 25 25 26 25 25 26 28 30
17 17 17 18 18 18 18 19 19 19 19 19 18 18 18 18 18 17 18 19 18 18 19 19 19 19 20 20 21 22 22 23 23 24 25 27 28 29 29 30 30 30 30 31 31 32 32 33 34 34 35 37 36 35 35 35 35 35 34 33 33 33 34 34 35 36 36 37 37 36 35 32 30 31 32 32 31 30 28 27 27 27 27 28 28 27 27 27
16 17 17 17 17 17 17 17 17 17 18 18 18 18 17 17 17 17 18 18 17 18 18 18 19 19 20 21 22 22 23 24 24 25 26 27 28 29 30 30 30 30 31 32 31 31 31 32 33 35 36 36 35 36 36 35 35 34 33 32 32 33 33 33 33 33 33 34 35 35 34 32 31 32 34 35 35 34 33 32 30 28 27 28 29 29 30 30
16 16 17 17 17 17 17 17 17 17 17 18 18 18 18 18 18 18 18 17 17 18 18 18 18 19 20 20 21 22 23 24 25 26 26 27 27 28 28 28 29 30 31 32 32 32 32 32 33 34 34 34 34 35 36 36 35 35 35 34 35 35 34 33 33 32 32 32 32 33 33 32 32 33 35 37 38 38 36 35 35 33 31 30 30 30 31 31
16 16 17 17 17 18 18 18 17 17 18 18 18 19 18 18 19 19 19 18 18 19 19 19 19 19 19 20 21 22 22 23 25 26 26 27 27 27 28 29 30 31 32 32 33 33 33 33 34 33 34 34 34 34 35 36 37 38 39 39 39 39 37 37 35 33 31 30 30 31 32 33 34 34 35 36 39 40 39 38 38 38 37 37 36 36 36 35
17 17 17 17 18 18 18 18 18 17 18 18 19 19 19 20 20 21 21 20 20 20 21 21 21 21 21 22 22 22 23 23 24 26 27 28 28 29 29 30 31 32 32 33 34 35 35 35 35 35 35 36 36 37 37 38 39 40 41 42 42 41 39 39 39 36 33 32 31 32 32 34 35 36 36 35 37 41 43 42 41 41 41 41 41 41 42 42
18 19 18 19 19 19 19 19 19 18 18 18 19 19 20 20 21 22 22 23 22 22 23 23 23 23 24 24 24 25 25 26 26 27 28 29 30 31 31 31 31 31 32 33 34 36 36 36 36 36 36 36 36 38 39 39 40 41 41 41 41 40 39 39 39 38 36 35 34 35 35 34 35 37 38 38 37 38 43 45 45 44 43 42 41 41 43 44
19 20 20 20 20 20 20 20 20 20 19 19 19 19 20 20 21 22 23 24 24 25 25 26 26 26 27 28 28 29 29 30 30 30 31 31 32 33 34 34 33 33 33 33 33 34 36 38 38 38 38 37 37 37 38 39 40 41 41 41 41 41 41 40 40 40 40 38 36 37 37 36 37 38 41 44 43 41 43 47 48 48 48 46 45 44 44 46
20 21 21 22 22 21 21 21 22 22 22 21 20 20 21 21 21 22 23 24 25 26 27 27 28 29 29 30 31 32 33 33 33 34 34 34 35 36 37 37 37 36 36 35 34 34 35 37 39 39 38 38 38 38 38 39 40 40 41 42 43 42 43 44 43 43 43 42 38 37 38 38 38 39 43 48 49 48 48 49 51 51 51 50 51 51 50 51
21 21 22 23 23 23 23 23 23 24 24 24 23 23 22 23 23 23 24 25 26 27 28 29 29 30 31 31 33 34 35 35 36 36 37 37 37 38 39 39 40 39 39 38 38 36 35 35 37 39 38 37 38 39 38 38 39 40 40 41 43 43 44 45 46 46 46 46 43 40 38 40 39 38 43 48 51 51 51 51 53 55 55 54 54 55 55 55
22 23 23 24 24 24 24 24 25 25 26 26 26 26 25 25 25 25 25 26 27 28 29 30 30 31 31 32 33 34 35 36 37 38 39 39 39 40 40 41 41 42 41 40 40 39 38 35 35 37 39 38 37 38 39 39 40 41 40 40 42 44 44 44 45 47 47 48 48 45 41 41 39 38 43 48 50 52 53 54 56 58 59 59 58 58 58 59
23 24 24 24 25 25 26 26 26 26 27 27 28 28 28 27 27 27 27 28 28 29 30 30 31 32 32 33 34 34 35 36 37 38 39 40 40 41 41 42 42 43 43 42 41 41 40 38 36 35 38 39 38 37 38 39 40 41 41 41 42 44 45 45 46 48 48 48 50 50 46 40 37 41 45 48 51 53 54 55 58 60 62 63 63 63 62 62
25 25 25 25 26 26 27 27 27 27 27 28 29 29 29 29 29 29 29 29 30 30 31 31 32 33 33 34 34 35 36 36 37 38 39 40 41 41 42 42 43 43 43 43 42 42 42 41 39 37 38 40 40 39 38 38 39 40 41 42 42 43 45 46 47 48 49 49 49 53 51 41 36 43 49 51 53 55 56 58 60 62 64 65 67 67 66 65
27 27 27 27 27 28 28 28 28 28 28 29 29 30 30 30 30 31 31 31 31 31 32 32 32 33 34 34 35 36 36 37 37 38 39 40 41 41 42 43 43 43 44 43 42 43 43 42 41 40 40 40 41 41 40 38 38 39 40 41 41 42 44 46 48 48 50 49 48 54 55 45 40 47 52 54 56 57 58 61 63 64 66 67 69 70 69 69
29 29 29 29 29 29 29 29 28 29 29 29 29 30 30 31 31 31 32 32 32 32 33 33 33 33 34 34 35 36 37 38 38 38 39 39 40 41 41 42 43 43 44 44 43 42 43 44 43 42 41 41 42 43 42 40 38 39 40 41 41 42 44 47 48 49 51 49 48 54 56 50 45 50 53 56 58 59 60 63 64 66 67 69 71 72 71 72
32 32 32 31 31 31 31 30 30 30 30 30 30 30 30 31 31 31 32 32 33 33 33 33 34 34 34 34 35 36 37 38 38 39 39 39 39 41 41 41 41 42 43 44 44 43 43 44 44 44 43 42 43 44 46 44 41 40 41 42 42 43 46 48 49 51 53 51 50 54 56 52 50 53 55 57 59 60 62 64 66 68 69 71 72 72 73 73
34 34 34 33 33 33 32 32 32 31 31 31 31 31 31 31 31 31 32 32 32 33 33 34 35 35 35 35 35 36 37 38 38 38 38 39 38 39 40 40 39 41 42 43 44 44 43 44 45 45 44 44 44 44 46 47 44 42 43 44 43 44 47 50 51 52 53 54 54 54 56 55 54 54 56 57 60 62 64 65 67 69 70 71 72 73 74 74
36 35 35 35 35 34 34 33 33 33 32 32 32 32 32 32 32 32 32 32 32 33 33 34 36 36 36 36 36 36 36 37 37 38 38 38 38 38 39 39 39 40 41 42 44 44 43 44 45 45 43 43 44 43 45 47 45 43 43 43 43 45 47 50 52 52 53 56 55 53 56 60 58 57 59 60 62 65 67 68 70 72 73 74 74 75 75 76
36 36 36 36 36 35 35 34 34 34 33 33 33 33 33 33 33 32 32 33 33 33 34 35 36 38 38 37 37 37 36 36 36 37 38 38 38 39 39 39 39 40 41 42 43 43 43 43 45 45 43 43 43 43 45 47 45 43 42 42 43 45 47 50 52 52 53 57 56 53 56 61 59 59 61 63 64 67 69 71 73 75 77 78 77 78 78 77
37 36 36 36 36 36 36 35 35 35 35 35 34 34 34 34 34 33 33 33 34 34 35 35 37 38 39 38 38 37 37 36 36 37 38 38 39 39 40 40 40 40 41 42 42 43 43 43 44 45 44 43 44 45 46 47 46 43 42 43 44 46 48 49 51 52 54 58 58 56 57 60 59 60 63 65 67 69 71 73 76 77 79 80 80 80 80 80
37 37 36 36 36 36 36 37 37 36 36 36 36 36 36 36 36 35 35 35 35 35 36 37 38 39 40 39 39 38 38 37 36 37 38 39 39 40 40 40 40 41 41 42 41 42 42 43 44 45 44 43 44 47 48 48 47 44 42 44 46 47 48 50 51 53 54 57 58 58 60 60 60 62 65 67 69 71 73 76 78 80 81 81 82 82 81 81
38 38 37 36 36 36 36 37 37 37 37 37 37 37 37 37 37 37 37 37 37 37 38 38 39 40 41 41 40 39 39 38 38 39 40 40 40 41 41 41 41 41 41 42 42 41 42 43 44 45 45 43 44 48 49 49 48 45 43 44 46 47 49 51 52 53 54 55 57 59 62 61 61 63 66 68 71 74 76 79 81 82 81 81 81 81 82 83
38 39 38 38 37 37 37 37 37 38 38 38 38 38 38 39 39 39 38 38 39 39 40 40 40 41 43 42 41 40 40 40 39 40 41 42 41 42 42 42 42 42 42 42 42 41 43 43 44 46 46 43 45 48 50 50 50 47 45 45 47 50 52 53 54 54 54 56 57 59 62 62 63 66 68 71 74 76 78 80 81 81 81 81 81 82 84 86
38 38 39 39 39 38 38 38 38 38 38 39 39 39 39 40 40 40 40 40 40 40 41 40 41 42 44 44 42 41 41 41 41 41 42 43 42 42 43 43 43 42 42 42 42 42 44 45 45 46 46 45 46 49 51 53 52 49 47 48 50 52 54 54 56 56 55 57 59 61 63 65 67 70 72 74 76 78 80 81 82 82 81 82 82 83 85 87
Wind_Direction
6 2 356 352 353 355 355 355 356 356 354 353 353 355 358 360 0 360 358 356 354 351 348 345 342 339 335 331 326 321 316 310 305 301 296 294 291 289 286 283 281 279 277 275 272 268 265 262 260 258 256 254 251 250 249 248 248 248 248 248 248 249 250 248 246 245 245 246 246 242 240 241 243 244 242 235 233 237 244 248 250 252 250 250 249 249 250 250
1 358 356 352 347 347 348 351 352 352 352 351 351 352 354 355 356 356 356 355 352 349 346 343 341 338 336 333 330 325 321 315 309 304 301 298 296 293 290 287 283 280 278 276 274 272 269 265 262 258 256 255 252 249 248 247 247 247 246 247 247 247 248 248 248 247 247 247 247 244 242 242 243 243 242 236 230 230 236 243 246 248 249 249 248 247 248 248
358 358 357 354 350 347 346 348 349 349 350 349 347 347 348 349 350 351 352 351 349 347 344 341 338 337 336 334 332 329 326 322 317 312 308 305 302 298 296 293 289 285 281 278 275 273 271 268 265 261 257 254 252 250 248 246 246 245 245 245 246 246 246 247 248 248 248 248 248 247 245 243 242 241 241 238 232 227 230 237 242 247 250 251 251 251 251 251
358 358 357 356 353 349 347 346 346 348 348 346 344 342 342 343 344 345 346 346 345 344 343 340 338 336 334 334 333 331 328 324 320 317 312 307 304 301 300 298 295 291 287 282 278 274 271 269 267 264 260 256 252 250 248 246 245 245 245 244 244 244 245 246 247 248 249 249 250 249 247 245 243 241 240 239 235 232 234 238 239 243 249 251 253 253 253 252
357 356 356 355 353 349 346 344 345 346 346 344 341 339 339 338 338 338 339 341 341 342 342 340 338 335 334 334 333 331 329 326 324 322 317 314 311 308 306 304 301 298 294 289 283 278 274 270 268 265 263 259 255 250 248 248 247 245 245 243 243 242 244 246 246 247 249 249 250 249 247 246 244 242 240 239 238 235 236 240 240 241 246 249 251 250 249 250
354 353 352 350 348 346 342 342 342 343 344 342 340 337 336 335 334 334 335 336 339 341 340 340 339 337 336 334 333 333 330 327 327 326 324 323 320 317 315 311 308 304 300 295 290 284 278 273 269 266 264 261 259 254 251 249 247 245 244 243 242 242 242 245 245 245 247 247 248 248 247 246 243 241 240 239 239 237 236 240 243 243 242 245 248 247 246 247
350 348 346 344 342 340 338 337 338 339 340 340 338 336 334 332 331 331 332 335 338 340 340 340 339 338 337 337 338 336 330 330 333 333 332 329 326 324 321 319 316 312 307 301 296 290 284 279 273 269 265 263 261 258 255 250 245 243 242 242 243 244 243 244 245 244 245 245 246 247 247 245 243 240 239 239 239 239 238 240 244 245 243 242 244 246 245 245
347 344 341 339 337 335 334 333 334 335 336 336 336 334 332 331 330 330 332 335 338 339 340 340 339 339 338 339 338 332 332 340 343 339 335 332 330 329 328 329 327 323 318 310 303 296 290 284 279 273 268 264 261 259 257 253 247 243 243 243 245 246 244 243 244 243 243 244 244 245 246 245 244 241 239 239 240 240 240 240 242 245 245 243 242 243 244 245
346 343 340 338 336 335 333 332 333 334 333 334 332 331 331 330 330 330 331 336 339 339 340 340 339 338 337 337 335 334 343 349 346 341 338 336 336 337 339 340 339 337 332 325 316 304 295 288 282 277 272 267 261 258 257 255 252 248 245 244 245 245 244 242 242 241 241 242 243 243 245 246 245 243 240 239 239 239 240 241 242 244 246 245 242 241 242 243
343 341 339 337 336 336 335 334 334 334 333 332 331 331 330 330 331 331 334 337 338 339 340 339 339 339 339 339 342 347 351 349 346 345 344 345 347 351 351 350 350 349 346 342 333 320 305 293 284 278 273 268 263 259 256 254 254 251 248 245 244 244 243 243 242 241 240 241 242 242 243 245 245 244 242 240 239 238 239 242 243 243 244 245 243 241 241 241
342 340 338 337 336 335 336 336 336 335 334 334 333 332 330 331 332 333 335 337 338 339 338 339 339 339 342 345 348 351 349 348 349 349 351 354 357 360 359 1 2 360 359 357 352 342 325 303 288 278 270 265 261 258 254 252 251 251 249 247 244 242 242 242 242 241 239 240 241 241 242 244 246 245 242 241 240 238 238 240 242 243 243 244 244 243 241 240
339 338 338 338 337 337 337 338 338 336 336 336 335 333 333 332 332 334 335 336 337 337 338 339 338 339 345 348 348 348 347 349 350 351 355 1 5 6 6 9 8 7 7 6 5 2 353 333 306 285 273 265 259 255 252 249 249 249 248 247 245 242 242 242 242 241 240 240 239 240 241 243 246 246 244 241 240 238 238 239 241 243 244 244 243 243 242 241
337 336 338 338 339 339 339 339 338 337 336 336 335 335 334 333 334 335 334 335 336 337 338 338 339 344 349 350 350 350 350 351 353 357 2 7 11 10 12 14 11 11 10 9 10 13 13 8 354 328 302 279 266 257 253 250 249 248 246 246 245 243 242 241 242 241 242 241 239 239 241 244 246 246 246 243 240 238 237 239 240 242 244 245 244 242 242 241
341 336 337 338 340 340 339 339 338 337 337 337 337 337 336 336 336 335 335 337 337 338 338 339 346 351 351 354 356 352 353 359 3 6 10 14 14 12 16 16 13 14 13 13 15 17 19 17 13 7 353 325 294 273 262 256 254 251 248 246 246 245 243 242 242 241 242 242 241 240 242 245 246 246 246 244 242 240 238 239 240 241 243 244 245 242 242 242
351 343 340 340 340 340 340 340 339 338 338 339 340 341 341 341 338 336 337 339 339 339 340 346 355 354 355 358 355 356 5 10 10 13 18 19 16 17 20 18 17 19 18 19 21 22 22 21 19 20 19 11 350 315 286 272 265 260 255 250 249 249 248 247 245 242 242 243 243 242 242 245 246 246 246 244 243 243 241 241 242 243 243 243 244 243 242 242
0 356 351 345 341 341 340 340 341 341 341 342 344 345 345 342 339 339 341 341 341 342 347 356 358 356 358 358 359 10 17 16 16 22 25 23 22 24 24 21 22 23 23 24 25 24 25 26 27 31 32 31 27 14 352 323 298 278 267 259 255 255 253 252 251 246 243 243 245 246 245 247 247 247 248 247 247 248 247 245 244 245 244 242 242 242 242 242
11 10 8 359 350 345 343 344 345 346 347 347 347 347 344 342 343 344 344 344 345 350 357 0 358 358 2 4 13 23 23 23 28 30 28 26 28 29 27 25 25 26 26 27 29 28 27 28 31 37 38 39 40 37 32 22 360 323 293 276 266 263 259 257 257 253 249 246 247 248 247 248 249 248 250 250 252 253 251 248 246 244 243 242 242 242 243 243
23 24 23 19 11 2 357 356 356 356 354 353 352 348 346 348 350 349 349 353 358 1 3 1 1 6 11 16 24 29 30 34 34 31 30 31 31 31 29 28 27 28 29 31 33 33 32 32 34 38 38 38 41 41 40 40 35 22 354 306 283 275 268 264 262 259 256 253 251 250 249 250 250 250 251 252 253 254 253 250 248 245 243 242 242 243 244 244
34 34 33 32 29 24 19 15 13 10 6 3 360 356 357 358 358 358 1 6 8 7 8 10 16 23 29 33 35 35 38 38 34 31 32 32 33 33 32 31 30 30 32 35 36 36 36 35 37 39 38 37 37 37 36 38 39 36 30 13 328 294 283 276 269 262 260 260 258 255 253 254 253 252 250 249 251 252 253 252 251 249 248 246 245 245 245 246
42 41 40 39 36 35 33 31 30 26 22 18 14 11 11 9 6 8 13 17 18 20 25 31 34 37 40 42 43 41 39 36 34 34 35 35 35 35 35 34 34 34 36 37 37 37 36 34 37 39 39 38 37 36 35 35 36 36 35 31 22 357 319 298 286 275 266 264 264 261 259 258 257 254 251 249 249 251 253 254 255 255 254 252 250 249 249 249
48 48 47 45 43 42 41 42 42 40 37 34 29 25 22 20 20 23 27 31 34 37 40 42 43 43 43 44 44 43 42 40 40 41 40 40 39 38 38 39 39 38 39 40 39 38 36 35 38 39 39 38 37 37 35 34 34 35 36 34 31 28 18 353 318 301 286 275 273 271 266 261 257 256 255 253 252 253 254 256 257 258 258 256 255 253 253 253
51 52 53 52 51 49 49 48 49 49 47 43 39 35 34 37 39 40 42 44 47 48 49 51 50 49 49 48 48 48 47 46 45 45 45 44 43 43 43 44 44 43 42 41 41 40 38 38 40 39 39 38 37 38 36 35 35 35 37 36 33 33 32 28 18 2 337 305 298 299 277 260 261 261 260 258 257 257 257 257 258 259 259 258 257 256 256 256
54 55 56 57 57 56 56 55 55 54 53 50 49 50 51 52 52 53 53 55 56 57 57 58 56 56 56 55 55 53 51 50 50 51 51 49 47 47 45 44 44 43 42 41 39 38 37 39 41 40 39 38 37 38 37 37 37 37 38 37 36 35 36 37 34 27 17 4 1 357 312 269 274 271 264 261 261 261 261 261 261 261 261 260 259 258 257 257
54 55 57 58 60 60 61 61 62 61 61 62 63 63 63 63 62 62 62 63 64 65 65 64 62 60 60 59 59 58 57 55 54 53 52 50 48 46 44 41 40 39 38 38 36 34 34 36 38 38 38 38 38 38 37 38 37 38 39 38 38 38 38 40 38 33 31 31 30 29 359 319 306 291 281 276 274 275 273 269 266 264 264 263 261 260 258 258
51 53 55 57 59 60 62 64 66 67 67 68 69 69 70 69 69 68 67 67 67 66 66 66 65 63 61 60 59 58 58 55 52 49 47 45 43 42 40 37 36 35 35 35 34 32 33 34 35 35 34 34 36 36 37 37 36 37 38 38 39 39 40 43 40 36 39 40 39 41 13 338 327 313 306 301 299 300 296 285 278 272 269 267 265 262 260 259
47 48 51 53 55 57 59 62 65 67 69 69 70 71 71 71 70 69 68 68 67 66 64 63 62 60 59 57 55 53 52 49 47 44 41 39 37 36 35 32 30 30 30 30 30 29 31 33 33 31 30 30 31 32 34 35 36 37 37 36 37 38 41 43 41 40 43 43 39 36 25 7 353 334 323 320 317 314 311 304 297 290 283 277 272 268 264 261
42 43 45 47 48 50 54 57 59 62 65 67 68 69 68 67 67 65 65 65 63 62 62 60 58 56 54 51 49 47 44 41 39 37 35 34 32 30 28 26 24 24 25 25 24 24 26 28 28 26 26 26 25 27 29 31 33 35 35 34 34 35 37 39 39 38 41 43 40 36 33 28 16 358 347 341 335 330 327 322 317 311 305 298 290 283 276 269
38 38 39 41 42 43 46 48 50 53 56 58 61 62 62 61 60 58 58 57 56 55 55 54 53 51 48 45 41 39 36 34 32 29 28 28 27 25 23 22 20 18 18 18 17 18 19 19 20 20 20 20 21 22 24 25 28 30 32 32 31 32 33 33 34 33 35 39 40 38 36 34 26 16 9 2 355 350 343 336 331 325 319 312 305 299 293 285
31 32 33 35 36 37 39 40 41 42 43 46 48 51 52 52 52 52 51 50 49 47 46 46 45 43 39 36 33 30 29 27 24 22 21 19 19 18 18 18 18 15 12 12 12 12 11 11 12 13 13 14 15 17 18 19 20 24 26 26 26 28 29 29 29 28 29 31 32 34 35 33 29 24 18 14 11 6 356 347 340 336 332 327 320 312 304 298
19 22 24 26 27 29 32 32 33 33 33 34 35 37 38 38 39 41 41 43 42 40 39 38 36 33 29 26 25 22 20 19 18 17 15 13 12 11 11 12 13 11 8 8 8 8 6 5 5 4 5 9 9 10 11 12 13 16 17 17 18 22 26 27 26 25 24 24 23 25 28 27 24 21 19 16 15 13 8 359 351 345 341 337 334 329 322 314
4 6 9 12 14 16 20 23 24 23 23 23 23 23 24 24 24 24 27 30 31 29 29 28 26 24 20 18 16 15 12 11 11 10 9 9 7 6 6 6 5 4 4 5 5 3 3 2 0 359 1 3 2 2 3 4 5 6 5 6 8 12 18 22 24 22 20 18 15 15 18 19 16 14 13 12 11 12 11 7 2 356 348 340 334 330 326 322
351 353 355 358 360 2 5 8 10 11 11 12 11 10 10 10 9 10 13 15 16 16 15 15 14 13 12 10 9 8 6 4 4 4 3 3 3 1 0 360 359 359 360 0 360 359 358 358 358 358 357 356 356 357 357 356 357 356 356 357 360 3 7 10 15 17 16 13 8 5 5 9 10 7 6 5 4 4 6 6 5 2 357 350 341 333 327 322
340 341 343 346 348 349 352 355 357 359 360 1 1 0 0 359 357 358 2 2 3 3 2 2 2 2 3 2 2 2 1 359 359 359 357 357 357 356 356 356 356 356 356 355 355 354 354 354 355 355 353 352 353 353 352 352 352 351 351 353 355 357 357 358 2 6 8 7 3 358 355 357 1 0 358 359 357 355 356 359 359 358 357 354 348 342 337 330
330 331 333 335 337 338 340 343 345 348 349 351 352 352 352 351 350 351 353 353 353 353 353 353 353 353 354 355 356 355 355 355 355 355 353 352 352 351 351 352 352 352 352 351 351 350 349 350 351 351 350 350 349 349 349 349 349 348 349 351 351 350 350 351 352 353 356 358 357 353 351 351 352 351 350 351 351 348 348 350 351 351 352 352 348 344 339 335
322 324 325 326 328 329 330 332 334 337 339 341 343 344 344 344 345 346 347 347 347 347 347 347 347 348 348 348 349 349 349 350 350 350 349 348 347 347 347 347 347 347 347 348 348 347 346 346 346 346 347 348 346 345 346 345 344 345 346 345 343 343 345 345 344 343 345 349 350 349 349 347 344 342 340 341 345 344 341 341 342 343 344 345 343 341 337 334
317 319 319 321 322 323 323 324 325 328 329 331 333 334 335 337 338 340 341 341 341 341 342 342 342 343 343 343 343 344 344 345 345 344 344 343 343 343 343 343 343 343 343 344 345 345 343 343 343 343 343 344 344 343 343 341 341 341 340 338 338 339 340 339 338 338 338 341 344 344 344 341 339 337 333 334 338 340 338 337 337 336 337 337 336 334 333 331
314 315 315 317 318 318 319 319 320 321 322 322 324 325 327 328 330 332 333 334 334 335 335 336 337 338 338 338 339 339 339 339 340 340 340 339 339 339 339 339 339 340 340 340 342 343 342 340 339 339 340 340 340 340 339 338 338 337 335 334 334 335 335 334 334 335 334 335 338 340 338 336 336 334 329 329 333 336 336 334 331 330 330 331 330 329 328 327
313 313 313 314 314 315 316 317 317 318 318 317 318 319 321 322 323 324 326 327 329 329 329 330 332 333 333 334 334 334 335 335 336 336 336 336 335 335 336 336 336 336 336 337 338 339 339 339 337 335 336 336 336 336 337 336 334 332 332 332 330 330 331 331 330 331 332 331 332 335 335 333 334 330 326 326 328 330 331 329 327 325 325 326 326 325 325 324
311 311 311 311 311 313 314 315 315 315 315 315 315 316 316 317 319 320 321 322 324 324 325 326 327 329 330 330 330 330 331 331 332 333 333 333 332 333 333 333 333 333 333 334 334 334 335 336 335 332 332 333 334 333 333 334 331 330 330 329 328 327 327 326 325 326 327 327 328 331 333 334 332 327 323 321 321 324 326 324 322 322 322 323 322 321 321 321
309 309 309 309 309 310 311 312 313 313 314 313 314 314 314 315 316 316 317 319 320 321 322 323 325 326 327 327 328 328 328 329 330 330 330 330 330 330 331 330 330 330 330 331 332 332 332 332 332 331 329 329 330 329 330 330 329 328 328 327 326 325 323 323 321 321 323 323 324 324 330 339 333 322 319 316 315 319 320 319 318 318 319 320 319 319 319 319
308 308 308 308 307 308 309 310 310 311 312 312 313 313 313 314 314 314 315 316 318 319 320 321 323 324 325 325 326 326 327 327 328 328 328 328 328 328 328 328 327 327 327 328 329 329 330 330 331 330 328 327 327 327 327 328 327 326 324 325 325 322 321 319 317 318 319 320 322 319 324 341 337 318 315 313 313 317 316 314 315 315 316 317 316 316 317 316
307 307 307 307 307 306 306 307 308 309 310 310 311 312 313 314 314 314 315 316 317 318 319 320 321 322 324 324 325 325 325 326 326 325 326 326 325 325 326 326 326 326 325 326 327 328 329 330 329 329 328 328 327 326 325 325 324 323 321 321 321 320 318 315 315 317 315 318 320 313 318 337 334 315 312 313 313 314 313 312 313 313 314 314 314 314 315 314
303 304 305 306 306 305 304 304 305 306 307 308 310 311 312 314 314 315 315 316 317 317 318 319 320 321 323 324 325 325 325 326 325 324 324 324 323 323 324 325 325 325 325 325 326 328 329 329 329 329 329 328 327 326 324 323 322 321 319 319 320 319 316 314 314 315 314 317 317 309 316 331 325 312 312 313 312 312 310 310 311 311 312 311 311 312 312 312
299 301 302 303 304 303 303 303 303 303 304 306 307 309 311 312 314 315 315 316 317 317 318 319 319 321 322 323 324 325 325 325 325 325 324 324 324 323 323 324 325 325 325 325 325 326 327 328 328 329 331 330 329 327 325 324 324 323 320 320 321 319 315 314 313 312 314 316 312 310 318 324 316 311 312 311 310 309 307 307 308 308 309 309 310 311 310 310
296 297 299 300 301 301 301 301 301 301 301 302 304 306 308 310 313 314 315 316 316 317 318 319 319 320 322 323 324 325 325 325 325 325 324 324 324 323 323 324 325 325 325 325 324 324 325 325 325 327 330 329 328 326 324 324 325 324 322 321 320 317 314 312 312 312 313 312 310 314 318 316 313 313 312 309 308 307 306 306 307 307 307 307 308 308 308 308
294 295 296 297 298 298 299 299 298 298 299 299 301 302 304 307 310 312 314 314 315 316 317 319 319 319 321 323 324 324 325 325 325 325 324 325 325 324 323 323 325 325 325 324 324 324 325 326 324 326 327 326 325 323 321 322 324 323 321 320 318 314 311 310 310 311 310 309 312 317 314 312 315 315 311 309 308 307 307 307 306 306 306 306 307 307 307 307
292 293 294 295 296 296 297 297 297 296 297 297 298 299 301 303 305 308 311 313 314 315 316 318 319 319 320 321 322 323 323 324 325 324 324 325 324 324 323 323 323 324 324 324 323 323 325 326 325 326 327 326 325 322 319 320 321 322 320 318 315 311 310 309 309 309 308 308 314 317 311 311 316 314 310 309 308 308 308 307 307 307 306 307 308 308 308 308
292 292 293 293 294 295 295 296 296 295 295 295 296 296 297 299 301 303 306 309 311 313 314 315 317 318 319 320 321 321 321 322 323 323 323 324 323 323 322 322 322 323 323 322 322 323 324 326 325 326 328 328 326 323 321 320 321 322 320 317 314 312 311 310 309 309 308 309 314 315 311 312 315 313 309 308 308 308 308 307 307 307 307 309 309 309 309 309
292 292 292 292 292 293 294 295 295 295 295 295 295 295 296 296 298 300 302 304 306 309 310 312 314 316 317 319 320 319 319 320 321 321 321 323 322 321 321 320 321 322 321 321 321 321 322 324 325 326 329 330 326 323 323 322 322 322 321 317 315 314 311 310 309 309 309 311 314 313 312 313 314 311 310 309 308 308 308 308 307 307 308 310 310 310 311 310
293 293 293 293 292 292 293 293 294 294 295 295 295 295 295 296 296 298 299 301 303 305 306 308 311 313 314 317 318 318 318 318 319 319 320 321 321 321 320 319 320 321 321 320 321 320 321 322 323 325 329 331 326 324 323 322 321 322 321 318 316 314 311 311 311 311 312 314 314 312 312 314 313 311 310 310 309 308 308 308 308 309 311 312 312 312 311 310
294 293 293 293 292 292 292 293 294 294 294 294 295 296 296 296 297 297 298 299 301 302 303 305 307 309 311 314 316 316 316 316 317 318 319 320 320 320 319 318 319 321 322 320 320 319 320 321 322 324 329 331 327 324 323 321 321 322 322 320 317 315 314 314 314 314 315 315 314 313 313 313 312 311 310 310 309 309 310 310 310 312 313 313 312 312 312 312
294 294 293 293 293 293 292 293 293 294 294 294 295 295 296 297 297 297 298 298 299 300 301 302 304 306 308 310 313 315 315 314 316 317 318 319 319 318 317 317 318 320 321 320 318 318 319 321 323 325 328 330 328 324 322 322 323 323 323 322 319 317 317 317 316 316 318 317 315 314 314 313 312 311 311 311 311 311 311 311 312 314 314 314 314 314 314 314
Height
5779 5778 5777 5777 5777 5776 5776 5775 5775 5775 5774 5773 5773 5772 5771 5771 5770 5769 5768 5767 5767 5765 5764 5763 5762 5760 5759 5757 5756 5755 5755 5753 5752 5750 5749 5748 5747 5746 5745 5744 5744 5743 5742 5742 5743 5744 5745 5746 5748 5750 5750 5751 5754 5754 5756 5757 5759 5761 5762 5764 5767 5769 5767 5768 5770 5772 5773 5774 5779 5786 5787 5786 5786 5791 5797 5798 5798 5799 5799 5800 5800 5800 5800 5802 5803 5804 5804 5807
5779 5778 5777 5777 5776 5776 5776 5775 5775 5774 5774 5773 5772 5771 5771 5770 5769 5768 5767 5767 5766 5765 5763 5762 5761 5759 5758 5756 5755 5753 5752 5750 5748 5747 5746 5745 5744 5743 5741 5741 5740 5739 5738 5738 5738 5739 5739 5740 5742 5744 5744 5746 5748 5749 5750 5751 5754 5755 5757 5760 5762 5763 5760 5761 5765 5768 5769 5770 5774 5779 5782 5782 5784 5789 5793 5794 5795 5796 5796 5794 5795 5794 5794 5796 5797 5799 5801 5803
5778 5778 5777 5777 5776 5776 5775 5775 5774 5774 5773 5772 5772 5771 5770 5769 5768 5768 5767 5766 5765 5764 5762 5761 5760 5758 5757 5755 5753 5751 5750 5748 5746 5745 5744 5743 5742 5740 5738 5737 5736 5735 5734 5734 5733 5734 5734 5735 5735 5737 5739 5740 5741 5743 5744 5745 5748 5749 5751 5755 5755 5756 5754 5756 5760 5762 5765 5767 5768 5773 5776 5776 5781 5786 5787 5789 5791 5791 5791 5789 5790 5789 5789 5792 5793 5797 5799 5801
5778 5777 5777 5776 5776 5775 5775 5775 5774 5773 5773 5772 5771 5770 5770 5769 5768 5767 5766 5765 5764 5763 5761 5760 5758 5757 5755 5753 5751 5749 5748 5747 5745 5744 5742 5741 5739 5737 5736 5733 5732 5731 5730 5729 5729 5729 5729 5730 5730 5731 5732 5733 5735 5738 5736 5738 5743 5743 5746 5749 5747 5749 5749 5751 5756 5758 5761 5763 5763 5767 5769 5771 5777 5781 5781 5783 5784 5786 5785 5784 5786 5786 5785 5788 5791 5796 5798 5797
5778 5777 5776 5776 5775 5775 5774 5774 5773 5773 5772 5771 5770 5770 5769 5768 5767 5766 5765 5764 5763 5762 5760 5759 5757 5756 5754 5752 5750 5748 5746 5745 5742 5741 5740 5738 5737 5735 5733 5730 5729 5727 5725 5725 5724 5724 5724 5725 5725 5725 5726 5726 5729 5731 5729 5734 5739 5738 5740 5741 5739 5742 5745 5746 5751 5755 5757 5758 5758 5760 5762 5766 5772 5774 5775 5777 5777 5779 5779 5779 5782 5782 5782 5784 5787 5792 5793 5793
5777 5776 5776 5775 5775 5774 5774 5773 5772 5772 5771 5770 5770 5769 5768 5767 5766 5765 5764 5763 5762 5761 5759 5758 5756 5754 5753 5751 5749 5747 5745 5743 5741 5739 5737 5736 5734 5733 5731 5728 5726 5723 5721 5720 5719 5719 5718 5719 5719 5720 5720 5719 5722 5723 5724 5730 5733 5732 5733 5733 5730 5736 5742 5741 5746 5751 5751 5752 5752 5753 5755 5760 5764 5766 5768 5770 5770 5773 5775 5776 5776 5777 5779 5780 5782 5786 5788 5789
5777 5776 5775 5775 5774 5774 5773 5772 5772 5771 5770 5769 5769 5768 5767 5766 5765 5764 5763 5762 5761 5759 5758 5756 5755 5753 5752 5749 5747 5745 5744 5741 5739 5737 5736 5734 5732 5731 5728 5726 5724 5721 5719 5716 5714 5714 5713 5714 5714 5715 5714 5714 5717 5716 5719 5725 5725 5725 5725 5724 5724 5731 5738 5737 5741 5746 5745 5745 5745 5746 5748 5751 5755 5759 5762 5764 5766 5767 5769 5770 5769 5771 5775 5776 5777 5780 5783 5785
5777 5776 5775 5774 5774 5773 5772 5772 5771 5770 5769 5769 5768 5767 5766 5765 5764 5763 5762 5761 5759 5758 5757 5755 5753 5752 5750 5749 5747 5745 5743 5740 5738 5737 5735 5733 5731 5729 5726 5724 5721 5718 5716 5713 5711 5709 5708 5709 5708 5709 5708 5709 5712 5710 5713 5716 5715 5718 5719 5719 5722 5727 5732 5733 5736 5738 5737 5738 5738 5740 5741 5743 5748 5753 5757 5759 5760 5761 5762 5764 5765 5768 5770 5772 5773 5775 5778 5780
5776 5775 5774 5774 5773 5772 5772 5771 5770 5769 5769 5768 5767 5766 5765 5765 5764 5762 5761 5760 5759 5757 5755 5754 5752 5750 5749 5748 5746 5744 5742 5739 5738 5736 5734 5732 5730 5728 5725 5722 5719 5716 5713 5709 5707 5705 5704 5704 5703 5704 5703 5704 5705 5705 5707 5706 5708 5713 5714 5716 5718 5721 5725 5726 5727 5728 5729 5730 5730 5733 5734 5737 5742 5746 5752 5753 5752 5755 5757 5759 5761 5764 5765 5765 5767 5769 5773 5775
5775 5774 5774 5773 5772 5772 5771 5770 5769 5769 5768 5767 5766 5765 5765 5764 5763 5762 5761 5759 5758 5756 5754 5753 5751 5749 5747 5745 5743 5742 5741 5739 5737 5735 5733 5731 5729 5727 5724 5721 5718 5715 5711 5707 5704 5701 5700 5699 5698 5698 5697 5698 5698 5699 5701 5700 5702 5705 5707 5710 5712 5715 5717 5717 5717 5718 5722 5723 5723 5727 5729 5732 5735 5739 5744 5743 5745 5750 5753 5754 5755 5758 5759 5758 5760 5764 5767 5768
5775 5774 5773 5772 5771 5771 5770 5769 5769 5768 5767 5766 5765 5765 5764 5763 5762 5761 5760 5759 5757 5755 5754 5752 5750 5748 5746 5744 5742 5741 5740 5738 5736 5734 5732 5730 5728 5726 5724 5721 5717 5714 5710 5706 5702 5698 5696 5694 5693 5692 5691 5691 5691 5693 5694 5693 5695 5697 5700 5703 5704 5708 5708 5707 5706 5710 5716 5715 5716 5721 5725 5728 5728 5730 5734 5735 5739 5746 5747 5748 5748 5749 5752 5753 5755 5757 5759 5761
5774 5773 5772 5771 5770 5770 5769 5768 5768 5767 5766 5765 5765 5764 5763 5762 5761 5760 5759 5757 5756 5754 5753 5751 5749 5748 5746 5743 5742 5740 5739 5737 5735 5734 5732 5730 5728 5726 5723 5720 5717 5714 5710 5706 5702 5697 5694 5690 5689 5687 5686 5686 5685 5687 5686 5687 5688 5690 5693 5693 5695 5698 5697 5697 5698 5704 5708 5706 5711 5717 5719 5721 5720 5721 5724 5729 5735 5738 5740 5741 5741 5742 5745 5747 5749 5750 5751 5752
5774 5772 5771 5770 5770 5769 5768 5768 5767 5766 5765 5764 5764 5763 5762 5761 5760 5759 5757 5756 5755 5753 5751 5750 5748 5746 5745 5743 5741 5739 5737 5736 5734 5732 5731 5729 5728 5725 5722 5720 5717 5713 5710 5706 5702 5697 5693 5690 5687 5684 5683 5681 5680 5681 5680 5682 5683 5683 5685 5684 5688 5689 5688 5690 5692 5697 5697 5699 5708 5711 5713 5714 5712 5713 5716 5721 5727 5730 5733 5734 5735 5736 5738 5740 5741 5742 5741 5743
5773 5772 5771 5770 5769 5768 5767 5767 5766 5765 5765 5764 5763 5762 5761 5760 5759 5758 5756 5755 5753 5752 5750 5749 5747 5745 5744 5742 5740 5739 5737 5735 5732 5731 5730 5728 5727 5725 5722 5720 5717 5713 5709 5705 5700 5696 5693 5690 5687 5683 5681 5678 5677 5677 5677 5678 5678 5677 5678 5680 5682 5680 5679 5683 5685 5689 5690 5695 5702 5702 5707 5705 5703 5707 5707 5711 5717 5723 5727 5727 5728 5729 5730 5731 5729 5732 5736 5741
5772 5771 5770 5769 5768 5767 5767 5766 5766 5765 5764 5763 5762 5761 5760 5759 5758 5757 5755 5754 5752 5751 5750 5748 5746 5744 5743 5741 5739 5738 5735 5734 5733 5732 5730 5729 5727 5724 5722 5720 5716 5713 5709 5705 5700 5698 5695 5691 5687 5682 5679 5677 5675 5674 5673 5674 5673 5673 5674 5676 5677 5674 5676 5679 5679 5683 5686 5691 5693 5694 5701 5698 5697 5701 5700 5704 5711 5716 5720 5720 5721 5719 5719 5720 5721 5728 5736 5740
5771 5770 5770 5769 5768 5767 5766 5766 5765 5764 5763 5762 5762 5761 5760 5759 5758 5756 5755 5753 5752 5750 5749 5747 5746 5744 5742 5740 5739 5736 5735 5735 5734 5732 5730 5729 5727 5724 5722 5719 5716 5713 5710 5707 5703 5700 5696 5692 5688 5683 5681 5678 5675 5673 5671 5671 5671 5671 5671 5672 5673 5673 5675 5675 5673 5677 5682 5687 5688 5689 5695 5693 5693 5696 5695 5699 5705 5709 5712 5712 5710 5707 5710 5715 5719 5727 5733 5734
5771 5770 5769 5769 5768 5767 5766 5765 5765 5764 5763 5762 5761 5760 5759 5758 5757 5756 5755 5753 5752 5750 5749 5747 5745 5743 5742 5740 5738 5737 5736 5735 5733 5732 5731 5729 5726 5724 5722 5720 5717 5715 5712 5708 5704 5701 5697 5694 5691 5687 5684 5681 5677 5675 5673 5671 5669 5669 5669 5669 5670 5670 5671 5671 5671 5674 5677 5682 5683 5684 5688 5687 5688 5692 5693 5696 5698 5699 5700 5699 5699 5700 5707 5714 5717 5722 5726 5727
5771 5770 5769 5769 5768 5767 5766 5765 5764 5764 5763 5762 5761 5760 5759 5758 5757 5756 5754 5753 5751 5749 5748 5746 5745 5743 5742 5740 5738 5738 5737 5735 5733 5732 5731 5729 5726 5725 5723 5721 5718 5716 5713 5709 5706 5703 5699 5696 5694 5690 5686 5683 5680 5678 5674 5671 5670 5669 5668 5667 5667 5667 5667 5669 5670 5671 5672 5674 5675 5678 5681 5681 5683 5688 5690 5687 5684 5684 5686 5691 5696 5701 5706 5709 5712 5716 5718 5719
5772 5770 5770 5769 5768 5767 5766 5765 5764 5764 5763 5762 5761 5760 5759 5758 5757 5755 5754 5752 5750 5748 5747 5746 5745 5744 5743 5741 5739 5738 5737 5735 5734 5733 5731 5729 5728 5726 5724 5722 5719 5716 5714 5711 5708 5704 5701 5700 5697 5690 5686 5683 5679 5677 5675 5673 5671 5670 5668 5667 5666 5665 5665 5666 5667 5668 5669 5669 5670 5673 5675 5675 5679 5681 5678 5674 5675 5679 5684 5690 5695 5698 5701 5704 5707 5708 5709 5711
5773 5772 5771 5769 5768 5767 5766 5766 5765 5764 5763 5762 5761 5760 5758 5757 5756 5755 5754 5752 5750 5749 5748 5747 5745 5744 5743 5741 5740 5739 5737 5736 5735 5733 5731 5730 5728 5726 5724 5722 5720 5718 5715 5712 5708 5705 5704 5703 5696 5689 5686 5684 5681 5679 5677 5676 5674 5672 5670 5668 5666 5665 5664 5664 5664 5665 5665 5665 5666 5668 5670 5672 5671 5667 5664 5669 5677 5682 5684 5686 5688 5692 5697 5699 5701 5701 5702 5703
5775 5773 5772 5771 5770 5768 5767 5766 5765 5764 5763 5762 5761 5759 5758 5758 5757 5756 5754 5753 5751 5750 5749 5747 5746 5744 5743 5742 5740 5739 5738 5737 5736 5734 5732 5730 5728 5727 5726 5724 5722 5719 5715 5712 5709 5707 5706 5702 5694 5691 5689 5687 5685 5683 5681 5679 5677 5675 5672 5669 5667 5665 5664 5663 5663 5663 5663 5663 5663 5664 5667 5666 5660 5657 5663 5674 5680 5680 5681 5681 5682 5685 5689 5692 5694 5696 5696 5697
5777 5775 5774 5772 5771 5770 5769 5768 5766 5765 5764 5762 5761 5760 5759 5758 5757 5756 5754 5753 5752 5751 5749 5748 5747 5745 5744 5742 5741 5740 5739 5737 5736 5734 5732 5731 5730 5729 5727 5725 5723 5719 5716 5713 5711 5710 5708 5701 5695 5693 5691 5689 5689 5687 5685 5683 5680 5678 5674 5672 5670 5667 5665 5664 5662 5662 5662 5662 5662 5663 5663 5658 5655 5660 5669 5673 5673 5673 5675 5676 5677 5678 5681 5684 5687 5689 5691 5692
5780 5778 5776 5775 5773 5772 5771 5769 5768 5767 5765 5764 5763 5762 5760 5759 5758 5757 5755 5754 5753 5752 5750 5749 5748 5746 5745 5744 5742 5741 5739 5738 5736 5735 5734 5733 5732 5730 5728 5726 5724 5721 5718 5716 5713 5711 5707 5701 5698 5696 5694 5693 5692 5689 5688 5686 5683 5680 5676 5674 5672 5670 5668 5666 5665 5664 5663 5662 5662 5661 5659 5656 5658 5664 5666 5665 5665 5668 5671 5672 5672 5673 5674 5677 5679 5682 5684 5686
5783 5781 5779 5777 5776 5774 5773 5772 5770 5769 5767 5766 5765 5763 5762 5760 5759 5758 5756 5755 5754 5753 5752 5750 5749 5748 5746 5745 5743 5742 5740 5739 5738 5737 5736 5734 5733 5731 5729 5727 5724 5722 5719 5716 5713 5710 5706 5702 5700 5699 5698 5697 5695 5693 5691 5688 5685 5682 5678 5677 5675 5673 5671 5669 5668 5667 5665 5663 5663 5662 5659 5659 5662 5664 5663 5663 5664 5665 5667 5667 5668 5668 5668 5670 5672 5675 5677 5679
5786 5784 5782 5780 5778 5777 5776 5774 5773 5771 5770 5768 5766 5765 5764 5762 5761 5759 5758 5757 5756 5755 5753 5752 5751 5749 5748 5747 5745 5744 5743 5741 5740 5738 5737 5735 5733 5731 5729 5727 5725 5722 5719 5717 5714 5711 5708 5705 5703 5702 5701 5699 5697 5695 5692 5689 5687 5683 5681 5679 5677 5676 5674 5671 5671 5671 5668 5667 5667 5666 5664 5664 5665 5664 5663 5663 5663 5663 5664 5665 5666 5665 5665 5665 5666 5668 5670 5671
5789 5787 5785 5783 5782 5780 5778 5777 5775 5774 5772 5770 5768 5767 5766 5764 5763 5762 5760 5759 5758 5757 5755 5754 5752 5751 5749 5748 5747 5745 5744 5743 5741 5740 5738 5736 5734 5732 5730 5728 5725 5723 5720 5718 5716 5713 5710 5707 5705 5704 5703 5700 5699 5697 5694 5692 5689 5686 5683 5682 5680 5679 5677 5674 5674 5673 5670 5669 5669 5668 5667 5666 5665 5664 5663 5663 5663 5663 5663 5664 5664 5664 5663 5662 5662 5663 5664 5665
5791 5789 5788 5786 5784 5783 5781 5780 5778 5777 5774 5773 5771 5769 5768 5766 5765 5764 5762 5761 5760 5759 5757 5756 5754 5753 5751 5750 5748 5747 5746 5744 5742 5740 5739 5737 5735 5733 5731 5729 5726 5723 5721 5719 5716 5714 5711 5709 5708 5706 5704 5702 5700 5698 5696 5694 5691 5688 5686 5685 5683 5682 5679 5676 5676 5674 5671 5670 5669 5668 5668 5666 5666 5665 5664 5664 5664 5664 5663 5662 5661 5660 5660 5660 5659 5659 5659 5660
5792 5790 5789 5788 5786 5785 5783 5782 5781 5779 5777 5776 5774 5772 5770 5769 5767 5766 5764 5763 5761 5760 5759 5758 5756 5755 5753 5751 5750 5748 5746 5744 5743 5741 5739 5737 5735 5734 5732 5729 5726 5724 5722 5720 5717 5715 5712 5711 5709 5707 5705 5703 5700 5697 5695 5694 5692 5690 5688 5687 5686 5683 5680 5678 5676 5674 5672 5671 5670 5670 5669 5668 5667 5666 5665 5665 5664 5663 5662 5660 5658 5658 5657 5657 5656 5656 5655 5655
5792 5791 5790 5789 5787 5786 5785 5784 5783 5781 5780 5778 5776 5775 5773 5771 5769 5767 5766 5764 5763 5762 5760 5759 5758 5756 5755 5753 5751 5749 5747 5745 5743 5741 5739 5737 5736 5734 5732 5730 5727 5724 5722 5720 5718 5715 5713 5711 5709 5707 5705 5703 5700 5697 5695 5694 5692 5691 5689 5689 5688 5685 5682 5680 5677 5675 5672 5670 5670 5671 5670 5668 5667 5666 5665 5665 5664 5663 5661 5659 5657 5656 5655 5654 5654 5653 5652 5651
5794 5792 5791 5789 5788 5787 5785 5784 5783 5782 5781 5780 5778 5777 5775 5773 5772 5770 5767 5765 5764 5763 5761 5760 5759 5758 5756 5755 5752 5750 5748 5746 5744 5742 5740 5738 5735 5733 5731 5729 5727 5725 5723 5720 5718 5715 5713 5711 5708 5707 5705 5702 5700 5698 5696 5694 5692 5691 5691 5691 5689 5687 5684 5681 5678 5675 5673 5671 5670 5670 5669 5668 5667 5666 5665 5664 5664 5662 5660 5658 5656 5654 5653 5651 5651 5650 5649 5648
5795 5793 5792 5790 5789 5787 5786 5785 5783 5782 5781 5780 5779 5778 5776 5775 5773 5771 5769 5767 5765 5764 5762 5761 5760 5758 5757 5755 5753 5751 5749 5747 5745 5742 5740 5738 5735 5733 5730 5728 5726 5725 5723 5720 5718 5716 5714 5712 5709 5706 5703 5701 5699 5697 5696 5694 5692 5691 5691 5690 5689 5686 5684 5681 5678 5676 5673 5671 5670 5669 5669 5668 5666 5665 5664 5663 5662 5661 5660 5658 5656 5654 5652 5650 5649 5647 5646 5645
5795 5794 5792 5791 5789 5788 5786 5785 5783 5782 5781 5780 5779 5778 5776 5775 5774 5772 5770 5768 5767 5765 5763 5762 5760 5758 5757 5755 5753 5751 5749 5747 5745 5743 5741 5738 5736 5734 5731 5729 5727 5725 5722 5720 5718 5716 5714 5712 5710 5707 5704 5702 5700 5698 5696 5694 5692 5691 5690 5689 5687 5684 5682 5681 5679 5677 5675 5672 5670 5668 5668 5668 5666 5663 5661 5660 5659 5658 5658 5656 5654 5652 5651 5649 5647 5645 5643 5642
5794 5793 5792 5791 5790 5788 5787 5785 5783 5782 5781 5779 5778 5777 5776 5775 5774 5772 5770 5769 5767 5765 5764 5762 5760 5758 5757 5755 5753 5751 5749 5747 5744 5742 5740 5738 5736 5734 5732 5729 5726 5724 5722 5719 5717 5715 5713 5711 5709 5707 5704 5702 5700 5698 5696 5694 5691 5689 5687 5685 5683 5681 5680 5679 5678 5677 5675 5673 5671 5668 5666 5665 5663 5661 5659 5657 5656 5655 5654 5653 5651 5649 5647 5645 5644 5642 5640 5638
5794 5793 5792 5791 5790 5788 5787 5785 5784 5782 5780 5779 5778 5776 5775 5774 5773 5771 5770 5768 5766 5765 5763 5762 5760 5758 5756 5754 5752 5750 5748 5746 5744 5742 5739 5737 5735 5733 5730 5728 5725 5723 5721 5719 5716 5714 5712 5709 5707 5705 5703 5700 5697 5695 5693 5690 5688 5686 5683 5680 5679 5678 5677 5676 5674 5674 5674 5673 5670 5667 5664 5661 5660 5658 5657 5656 5654 5651 5649 5648 5647 5645 5644 5642 5639 5637 5635 5633
5793 5792 5791 5790 5789 5788 5786 5785 5784 5782 5780 5779 5777 5776 5775 5773 5772 5770 5769 5767 5765 5764 5762 5761 5759 5757 5755 5753 5751 5749 5747 5745 5743 5741 5738 5735 5733 5731 5729 5727 5724 5722 5720 5718 5715 5712 5710 5707 5705 5703 5701 5699 5696 5693 5690 5688 5685 5683 5680 5679 5678 5677 5676 5674 5672 5671 5671 5671 5669 5666 5661 5658 5656 5655 5654 5653 5652 5650 5646 5644 5643 5641 5640 5639 5638 5636 5633 5630
5792 5791 5789 5788 5787 5786 5785 5784 5783 5782 5780 5778 5777 5775 5774 5772 5771 5769 5768 5766 5764 5763 5761 5759 5757 5756 5754 5752 5750 5748 5746 5743 5741 5739 5737 5734 5732 5729 5727 5725 5723 5721 5719 5717 5716 5713 5709 5706 5703 5701 5699 5697 5695 5692 5689 5687 5684 5681 5679 5677 5676 5674 5673 5672 5671 5669 5668 5667 5666 5664 5660 5657 5654 5652 5649 5647 5646 5646 5643 5639 5638 5636 5635 5635 5634 5632 5630 5628
5790 5789 5788 5787 5786 5785 5784 5782 5781 5780 5779 5777 5776 5774 5772 5771 5769 5768 5766 5765 5763 5761 5760 5758 5756 5754 5752 5750 5747 5745 5743 5741 5739 5737 5735 5733 5730 5727 5725 5722 5720 5719 5717 5715 5713 5712 5709 5705 5701 5699 5697 5695 5693 5692 5690 5686 5682 5680 5678 5675 5672 5671 5669 5668 5666 5665 5663 5662 5663 5662 5659 5655 5652 5648 5645 5641 5639 5638 5636 5633 5632 5631 5630 5630 5628 5626 5624 5622
5789 5788 5786 5785 5784 5783 5782 5781 5779 5778 5777 5776 5774 5773 5771 5769 5768 5766 5765 5763 5761 5760 5758 5756 5755 5753 5750 5748 5746 5743 5741 5739 5737 5735 5732 5730 5728 5725 5723 5720 5717 5715 5714 5712 5710 5709 5708 5705 5701 5697 5696 5694 5692 5690 5688 5685 5682 5679 5677 5674 5670 5668 5667 5664 5662 5660 5658 5657 5657 5658 5658 5654 5650 5646 5641 5637 5634 5632 5630 5629 5627 5625 5624 5624 5622 5620 5617 5615
5787 5786 5785 5783 5782 5781 5780 5779 5778 5776 5775 5774 5772 5771 5769 5768 5766 5764 5763 5761 5760 5758 5756 5754 5753 5751 5749 5747 5745 5742 5739 5737 5734 5732 5730 5728 5725 5723 5720 5717 5715 5712 5711 5709 5707 5705 5704 5703 5701 5697 5693 5692 5691 5688 5686 5684 5680 5677 5675 5672 5669 5666 5664 5662 5659 5657 5655 5653 5650 5651 5653 5652 5648 5643 5639 5634 5630 5628 5626 5624 5621 5618 5616 5615 5614 5613 5611 5608
5785 5784 5783 5781 5780 5779 5778 5777 5775 5774 5773 5771 5770 5769 5767 5766 5764 5762 5760 5759 5757 5756 5754 5752 5751 5749 5747 5745 5743 5741 5738 5735 5733 5730 5727 5725 5723 5720 5717 5715 5712 5710 5708 5706 5705 5703 5701 5700 5699 5696 5692 5689 5688 5687 5685 5683 5679 5674 5671 5670 5667 5664 5661 5658 5656 5653 5652 5650 5646 5643 5645 5649 5646 5639 5635 5631 5627 5625 5622 5619 5616 5612 5609 5607 5605 5604 5603 5601
5783 5782 5780 5779 5778 5777 5776 5774 5773 5772 5771 5769 5768 5766 5765 5764 5762 5760 5758 5756 5755 5753 5751 5750 5748 5747 5745 5743 5741 5739 5736 5734 5731 5728 5725 5722 5720 5717 5715 5712 5709 5707 5704 5703 5702 5700 5697 5696 5695 5693 5690 5687 5685 5684 5682 5680 5677 5672 5669 5667 5665 5662 5658 5655 5652 5649 5647 5645 5643 5637 5636 5644 5645 5636 5630 5627 5623 5620 5617 5613 5610 5606 5603 5599 5596 5594 5593 5592
5780 5779 5778 5777 5776 5774 5773 5772 5771 5769 5768 5767 5765 5764 5762 5761 5759 5758 5756 5754 5752 5750 5749 5747 5746 5744 5743 5741 5739 5737 5734 5732 5730 5727 5724 5721 5717 5715 5712 5709 5706 5703 5701 5699 5698 5696 5694 5692 5691 5689 5687 5684 5681 5679 5678 5677 5674 5670 5667 5664 5663 5660 5656 5652 5648 5645 5643 5641 5640 5632 5628 5635 5639 5632 5625 5621 5617 5614 5610 5605 5601 5598 5595 5591 5587 5585 5583 5581
5778 5777 5776 5775 5773 5772 5771 5769 5768 5767 5765 5764 5763 5761 5759 5758 5757 5755 5754 5752 5750 5748 5746 5744 5743 5741 5740 5738 5736 5734 5732 5730 5727 5725 5722 5719 5715 5712 5709 5706 5703 5700 5697 5695 5694 5693 5690 5688 5686 5685 5684 5681 5678 5675 5673 5672 5671 5667 5664 5661 5659 5656 5651 5647 5644 5640 5637 5638 5638 5629 5622 5627 5631 5625 5619 5616 5611 5607 5603 5598 5594 5591 5587 5583 5579 5576 5574 5570
5775 5774 5773 5772 5770 5769 5768 5767 5765 5764 5763 5761 5760 5758 5757 5755 5754 5753 5751 5749 5747 5745 5743 5741 5739 5738 5737 5735 5733 5731 5729 5726 5724 5722 5719 5716 5713 5709 5706 5703 5700 5697 5694 5691 5689 5689 5687 5684 5681 5680 5680 5677 5675 5671 5667 5666 5666 5663 5659 5656 5653 5650 5645 5641 5639 5635 5631 5632 5632 5624 5618 5621 5623 5618 5615 5611 5606 5602 5598 5593 5589 5585 5581 5577 5572 5569 5565 5561
5771 5770 5769 5768 5767 5766 5765 5764 5762 5761 5760 5758 5757 5756 5754 5753 5751 5750 5748 5746 5745 5742 5740 5739 5737 5735 5733 5732 5730 5728 5726 5724 5721 5719 5716 5713 5710 5707 5703 5700 5697 5694 5691 5687 5685 5684 5683 5680 5676 5675 5674 5672 5669 5667 5662 5660 5660 5658 5654 5651 5648 5645 5640 5636 5633 5631 5627 5624 5622 5619 5614 5613 5615 5613 5609 5606 5601 5595 5591 5587 5583 5578 5574 5570 5566 5562 5557 5552
5767 5767 5766 5765 5763 5762 5761 5760 5759 5758 5756 5755 5754 5752 5751 5750 5748 5747 5745 5744 5742 5740 5738 5736 5733 5731 5730 5728 5727 5725 5723 5720 5718 5716 5713 5710 5707 5704 5701 5697 5694 5691 5688 5684 5681 5679 5678 5676 5672 5670 5670 5667 5664 5662 5658 5654 5654 5653 5650 5646 5644 5640 5636 5632 5628 5626 5623 5617 5615 5617 5609 5602 5605 5606 5600 5597 5593 5588 5583 5578 5574 5569 5565 5562 5558 5553 5548 5542
5764 5763 5762 5761 5759 5758 5758 5757 5755 5754 5753 5752 5750 5749 5748 5747 5745 5744 5743 5741 5739 5737 5735 5733 5730 5728 5726 5725 5723 5721 5719 5717 5715 5712 5710 5708 5704 5701 5698 5694 5691 5688 5684 5681 5678 5675 5674 5672 5668 5666 5666 5664 5660 5657 5653 5650 5649 5649 5646 5643 5640 5636 5632 5627 5623 5620 5617 5610 5609 5613 5606 5597 5598 5598 5591 5587 5584 5579 5575 5570 5564 5559 5554 5550 5547 5542 5536 5531
5760 5759 5758 5757 5755 5754 5753 5752 5751 5751 5749 5748 5747 5745 5744 5743 5742 5741 5739 5738 5736 5734 5732 5730 5727 5724 5722 5721 5719 5717 5715 5713 5711 5709 5706 5704 5701 5697 5694 5691 5688 5685 5681 5678 5675 5672 5670 5668 5664 5662 5661 5659 5655 5651 5649 5646 5644 5644 5641 5637 5634 5630 5627 5623 5618 5615 5611 5605 5602 5604 5600 5594 5593 5590 5584 5579 5575 5570 5566 5561 5555 5549 5544 5540 5535 5530 5525 5519
5755 5754 5754 5753 5752 5750 5749 5748 5747 5746 5745 5744 5743 5742 5740 5739 5738 5737 5736 5734 5732 5730 5728 5726 5723 5720 5718 5717 5715 5713 5711 5709 5707 5705 5703 5701 5698 5694 5691 5687 5684 5681 5678 5674 5671 5669 5666 5663 5661 5658 5657 5655 5650 5646 5643 5641 5639 5638 5636 5631 5627 5624 5620 5617 5614 5610 5606 5601 5597 5594 5591 5589 5588 5583 5577 5572 5567 5562 5557 5552 5546 5540 5535 5530 5524 5518 5512 5507
5750 5750 5749 5748 5747 5746 5745 5744 5743 5742 5741 5740 5739 5738 5736 5735 5734 5733 5732 5730 5728 5726 5724 5722 5720 5717 5714 5712 5711 5709 5707 5705 5703 5701 5699 5697 5695 5691 5687 5684 5680 5678 5675 5671 5667 5665 5661 5659 5656 5653 5653 5651 5646 5641 5638 5635 5633 5633 5631 5627 5622 5619 5614 5610 5607 5605 5602 5598 5594 5588 5583 5582 5580 5575 5570 5565 5559 5554 5548 5542 5536 5532 5527 5520 5513 5506 5501 5495
5745 5745 5744 5743 5743 5742 5741 5740 5739 5738 5737 5735 5734 5733 5732 5731 5730 5729 5728 5726 5724 5722 5720 5718 5716 5713 5710 5708 5707 5705 5703 5701 5698 5697 5694 5693 5690 5687 5683 5680 5676 5674 5671 5667 5663 5660 5657 5655 5652 5649 5648 5647 5642 5636 5633 5630 5628 5628 5626 5622 5618 5613 5609 5605 5601 5599 5596 5593 5589 5584 5577 5575 5572 5567 5563 5558 5552 5545 5539 5531 5525 5522 5517 5510 5502 5495 5489 5483
5741 5740 5739 5738 5738 5737 5736 5735 5734 5733 5732 5731 5730 5729 5728 5727 5725 5724 5723 5722 5720 5719 5716 5714 5712 5709 5706 5703 5702 5701 5699 5696 5694 5692 5690 5688 5686 5683 5679 5675 5672 5669 5666 5663 5659 5656 5652 5649 5648 5645 5643 5642 5638 5632 5627 5624 5622 5622 5619 5616 5612 5607 5603 5599 5595 5592 5590 5584 5579 5575 5571 5567 5563 5558 5553 5549 5543 5536 5529 5522 5516 5511 5505 5498 5491 5484 5478 5471